Location: Cahas Mountain Overlook
(37.0833°N, 80.1000°W)
Time: 11:24:18
(UTC-04:00)

A-11 Canister half - Pass Details

Date: 15 February 2026
Orbit: 1524 x 1683 km, 47.3° (Epoch: 16 March)

Event Time Altitude Azimuth Distance (km) Brightness Sun altitude
Rises 23:15:09 0° 302° (WNW) 4,677 12.0 -59.5°
Reaches altitude 10° 23:18:10 10° 302° (WNW) 3,698 11.3 -59.9°
Enters shadow 23:19:05 14° 302° (WNW) 3,405 11.1 -60.0°
